Location: Presov
(49.0000°N, 21.2500°E)
Time: 10:34:37
(UTC+02:00)

A-11 Canister half - Pass Details

Date: 20 April 2021
Orbit: 1526 x 1683 km, 47.3° (Epoch: 11 May)

Event Time Altitude Azimuth Distance (km) Brightness Sun altitude
Rises 23:38:20 0° 288° (WNW) 4,938 12.1 -27.9°
Reaches altitude 10° 23:42:59 10° 270° (W) 3,935 11.3 -28.1°
Maximum altitude 23:48:44 17° 235° (SW) 3,371 10.5 -28.4°
Enters shadow 23:49:35 17° 229° (SW) 3,379 10.5 -28.4°
